Weather Roundup
Issued by NWS

Home | Current Version | Previous Version | Text Only | Print | Product List | Glossary On
Versions: 1 2 3 4 5 6 7 8 9 10 11 12 13 14 15 16 17 18 19 20 21 22 23 24 25 26 27 28 29 30 31 32 33 34 35 36 37 38 39 40 41 42 43 44 45 46 47 48 49 50
520
NZUS93 KARX 202059
HRRWXR

CURRENT HOURLY OBSERVATIONS ACROSS
MUCH OF THE UPPER MISSISSIPPI VALLEY
NATIONAL WEATHER SERVICE LA CROSSE WI
400 PM CDT THU JUL 20 2017


...SOUTHEAST MINNESOTA...


CITY           SKY/WX    TMP DP  RH WIND       PRES   REMARKS
ROCHESTER      PTSUNNY   83  73  72 N5        30.04R
ROCHESTER/MAYO FAIR      83  69  62 NW3       30.04R
WINONA         CLOUDY    81  70  69 NW5       30.00S
AUSTIN         CLOUDY    86  70  58 NE5       30.03R HX  90
ALBERT LEA     MOSUNNY   82  70  65 NE5       30.03S
DODGE CENTER   CLOUDY    82  70  65 N3        30.05S
PRESTON        CLOUDY    82  70  66 N6        30.03R
OWATONNA       PTSUNNY   84  72  65 NW3       30.04S
FARIBAULT      MOSUNNY   84  72  65 CALM      30.04S
$$

...ELSEWHERE IN MINNESOTA...


CITY           SKY/WX    TMP DP  RH WIND       PRES   REMARKS
MINNEAPOLIS    CLOUDY    88  63  43 SW6       30.02S
INTNL FALLS    SUNNY     78  52  40 NW7       29.97F
DULUTH         MOSUNNY   84  61  45 W9        30.00R
RED WING       CLOUDY    84  64  51 NW5       30.01R
REDWOOD FALLS  CLOUDY    84  66  54 CALM      30.03S
MANKATO        CLOUDY    83  71  67 CALM      30.04S
WORTHINGTON    CLOUDY    85  70  60 NE10      30.04F
FAIRMONT       PTSUNNY   85  76  74 N8        30.02F HX  94
$$

...SOUTHWEST WISCONSIN...


CITY           SKY/WX    TMP DP  RH WIND       PRES   REMARKS
LA CROSSE      PTSUNNY   87  72  60 N8        29.98S HX  93
PRAIRIE DU CHI CLOUDY    85  69  58 N6        29.98S
BOSCOBEL       CLOUDY    90  72  55 N6        29.97S HX  97
LONE ROCK      MOSUNNY   88  70  55 N6        29.96F HX  93
PLATTEVILLE    CLOUDY    83  77  81 N6        30.00S HX  93
FORT MC COY    MOSUNNY   82  70  66 NW7       30.01S
MAUSTON-NEW LI PTCLDY    86  72  63 NW9       29.98S HX  91
VIROQUA        FAIR      83  72  70 N6        30.02S
WIS DELLS      SUNNY     88  65  47 NW10      29.98F HX  90
$$

...ELSEWHERE IN WISCONSIN...


CITY           SKY/WX    TMP DP  RH WIND       PRES   REMARKS
MILWAUKEE      MOSUNNY   79  70  74 SE7       29.96S
MADISON        PTSUNNY   85  71  63 NW9       29.96F HX  90
GREEN BAY      SUNNY     86  72  62 NW8       29.94S HX  92
EAU CLAIRE     NOT AVBL
BLACK RVR FLS  FAIR      84  68  58 W6        30.00S
MEDFORD        CLOUDY    82  62  51 NW10      30.01S
WAUSAU         SUNNY     85  62  46 W9        29.97F
WIS RAPIDS     MOSUNNY   87  68  52 NW10      29.99F HX  90
MARSHFIELD     SUNNY     83  66  56 W12       30.00F
RICE LAKE      SUNNY     84  63  49 W8        30.03S
$$

...NORTHEAST IOWA...


CITY           SKY/WX    TMP DP  RH WIND       PRES   REMARKS
WATERLOO       MOSUNNY   89  75  63 NE10      29.97R HX  99
DUBUQUE        CLOUDY    84  75  74 N9        29.99S HX  92
DECORAH        CLOUDY    84  73  70 VRB5      29.99S HX  91
MASON CITY     MOSUNNY   86  75  69 E9        30.02S HX  95
CHARLES CITY   MOSUNNY   86  75  70 NE8       30.01S HX  95
OELWEIN        MOSUNNY   86  77  74 VRB7      30.00S HX  97
$$

...ELSEWHERE IN IOWA...


CITY           SKY/WX    TMP DP  RH WIND       PRES   REMARKS
DES MOINES     MOSUNNY   98  73  44 SW7       29.93S HX 108
IOWA CITY      MOSUNNY   93  78  61 W6        29.96S HX 108
FORT DODGE     CLOUDY    88  75  66 N8        29.99S HX  97
MARSHALLTOWN   MOSUNNY   94  79  61 NE8       29.95S HX 111
CEDAR RAPIDS   MOSUNNY   91  80  70 N7        29.95S HX 109
$$

...NORTHERN ILLINOIS...


CITY           SKY/WX    TMP DP  RH WIND       PRES   REMARKS
CHICAGO-OHARE  CLOUDY    86  74  67 W8        29.95S HX  94
CHICAGO-MIDWAY CLOUDY    87  74  64 NW12      29.95R HX  95
MOLINE         MOSUNNY   94  77  57 VRB3      29.94S HX 108
ROCKFORD       CLOUDY    85  75  72 NW6       29.98S HX  93
PEORIA         MOSUNNY   94  79  61 SW10      29.94F HX 111
$$

NOTE: "FAIR" INDICATES FEW OR NO CLOUDS BELOW 12,000 FEET WITH NO
SIGNIFICANT WEATHER AND/OR OBSTRUCTIONS TO VISIBILITY. WIND
SPEEDS ARE IN MILES-PER-HOUR.




USA.gov is the U.S. government's official web portal to all federal, state and local government web resources and services.